Regional Weather Roundup
Issued by NWS

Home | Current Version | Previous Version | Text Only | Print | Product List | Glossary Off
Versions: 1 2 3 4 5 6 7 8 9 10 11 12 13 14 15 16 17 18 19 20 21 22 23 24 25 26 27 28 29 30 31 32 33 34 35 36 37 38 39 40 41 42 43 44 45 46 47 48 49 50

000
ASUS45 KTFX 290710
RWRMT
MONTANA REGIONAL WEATHER ROUNDUP
NATIONAL WEATHER SERVICE GREAT FALLS MT
100 AM MDT FRI JUL 29 2016

NOTE: "FAIR" INDICATES FEW OR NO CLOUDS BELOW 12000 FEET WITH NO
SIGNIFICANT WEATHER AND/OR OBSTRUCTIONS TO VISIBILITY.

MTZ001>007-043-290800-
WEST OF THE DIVIDE

CITY           SKY/WX    TMP DP  RH WIND       PRES   REMARKS
KALISPELL      CLEAR     58  55  90 N7        30.04S
MISSOULA       CLEAR     66  49  54 CALM      30.07S
BUTTE          CLEAR     56  39  53 SE6       30.21S
MULLAN PASS    CLEAR     66  38  35 N5        30.24F
ANACONDA         N/A     61  43  51 SW6       30.17F
DEER LODGE       N/A     63  43  48 W5        30.18R
EUREKA           N/A     63  50  63 CALM      30.03S
HAMILTON         N/A     63  50  63 CALM      30.09S
LIBBY            N/A     64  48  55 SE3       30.04S
PLAINS           N/A     64  49  58 CALM      30.04S
RONAN            N/A     59  53  80 CALM      30.09S
$$

MTZ008-052>055-290800-
SOUTHWEST MONTANA

CITY           SKY/WX    TMP DP  RH WIND       PRES   REMARKS
BOZEMAN        CLEAR     64  51  62 VRB3      30.14R
DILLON         CLEAR     62  44  51 S7        30.17R
W YELLOWSTONE  CLEAR     48  36  61 CALM      30.28S
ENNIS          CLEAR     63  41  45 S6        30.22S
THREE FORKS      N/A     63  44  49 CALM      30.11S
TWIN BRIDGES     N/A     67  42  40 NW2       30.13R
$$

MTZ009-010-012-014-046-048-049-054-290800-
EAST SLOPES AND CENTRAL MONTANA

CITY           SKY/WX    TMP DP  RH WIND       PRES   REMARKS
CUT BANK       LGT RAIN  61  57  87 NW12      30.17R
GREAT FALLS    CLEAR     68  49  50 NE13      30.10R
MALMSTROM AFB  CLEAR     67  52  57 NE13      30.10R
HELENA         PTCLDY    69  47  45 CALM      30.10S
CHOTEAU          N/A     59  54  82 NW7       30.15S
CONRAD           N/A     60  60 100 N1        30.13S
$$

MTZ011-013-016-021-045-047-050-051-290800-
NORTH CENTRAL MONTANA

CITY           SKY/WX    TMP DP  RH WIND       PRES   REMARKS
HAVRE          CLOUDY    67  56  67 W7        30.08R
N BAR RANCH      N/A     57  48  72 SW7       30.20F
CHINOOK          N/A     64  57  77 E6        30.07S
$$

MTZ017>020-022>027-061-062-290800-
NORTHEAST MONTANA

CITY           SKY/WX    TMP DP  RH WIND       PRES   REMARKS
GLASGOW        CLEAR     61  54  77 E9        30.09F
JORDAN           N/A     61  57  87 CALM      30.11S
SIDNEY         CLEAR     58  56  93 CALM      30.13S
WOLF POINT     CLEAR     60  55  83 CALM      30.11S
PLENTYWOOD       N/A     57  52  82 E6        30.12F
SCOBEY           N/A     56  41  57 CALM      30.10F
$$

MTZ028>42-056>058-290800-
SOUTHCENTRAL AND SOUTHEAST MONTANA

CITY           SKY/WX    TMP DP  RH WIND       PRES   REMARKS
BAKER          CLEAR     58  57  97 SE7       30.16S
BILLINGS       CLEAR     69  49  48 SE5       30.13F
LIVINGSTON     CLEAR     63  51  65 SE6       30.17R
MILES CITY     CLEAR     67  58  72 MISG      30.11S
EKALAKA          N/A     61  58  90 SE10      30.13S
FORSYTH          N/A     63  57  82 NE3       30.10F
LAUREL           N/A     63  51  64 N1        30.11F
ROUNDUP          N/A     64  49  58 CALM      30.04F
$$

REGIONAL REPORTS...DAKOTAS

CITY           SKY/WX    TMP DP  RH WIND       PRES   REMARKS
WILLISTON      CLEAR     55  52  89 CALM      30.13S
MINOT          CLEAR     61  55  81 SW7       30.12S
DICKINSON      CLOUDY    58  57  97 CALM      30.14S
BEACH            N/A     55  55 100 SE6       30.18S
CROSBY           N/A     54  54 100 S6        30.14F
WATFORD CITY     N/A    N/A N/A N/A MISG        N/A
BISMARCK       MOCLDY    64  57  78 NE5       30.12S
GRAND FORKS    CLEAR     59  54  83 N3        30.09F
FARGO          CLOUDY    63  57  81 N5        30.10R
BUFFALO SD       N/A     61  60  97 S7        30.10F
RAPID CITY     FOG       55  55 100 CALM      30.17S VSB 1/4
$$

REGIONAL REPORTS...WYOMING/IDAHO/WASHINGTON

CITY           SKY/WX    TMP DP  RH WIND       PRES   REMARKS
GILLETTE       CLEAR     58  54  86 CALM      30.18F
SHERIDAN       CLEAR     57  51  80 CALM      30.15F
BUFFALO WY     CLEAR     61  51  70 S5        30.22F
CODY           CLEAR     61  48  63 S3        30.21F
YELLOWSTONE LA   N/A     46  38  73 NW3       30.38S
IDAHO FALLS    CLEAR     59  46  62 N6        30.07R
SALMON         CLEAR     66  43  42 SE3       30.07S
BOISE          CLEAR     76  40  27 CALM      29.96R
SPOKANE        CLEAR     74  47  38 SW3       29.99F
$$

REGIONAL REPORTS...ALBERTA

CITY           SKY/WX    TMP DP  RH WIND       PRES   REMARKS
EDMONTON       MOCLDY    57  54  88 CALM      30.05S
CALGARY        PTCLDY    61  52  72 W7        30.13F
LETHBRIDGE     PTCLDY    59  59 100 SW8       30.12F
MEDICINE HAT   CLOUDY    66  59  77 NW7       30.08R
WATERTON GATE    N/A     59  54  82 SE1         N/A
CARDSTON         N/A     59  57  94 W2          N/A
MILK RIVER       N/A     61  59  94 NE7         N/A
$$

REGIONAL REPORTS...SASKATCHEWAN

CITY           SKY/WX    TMP DP  RH WIND       PRES   REMARKS
SWIFT CURRENT  CLEAR     59  54  82 S9        30.07F
SASKATOON      CLOUDY    63  59  88 NE7       30.04F
CYPRESS HILLS    N/A     61  50  67 S7          N/A
VAL MARIE        N/A     52  50  93 NW2         N/A
ROCKGLEN         N/A     55  50  82 S9          N/A
ASSINIBOIA       N/A     57  57 100 SW5         N/A
$$



USA.gov is the U.S. government's official web portal to all federal, state and local government web resources and services.